FOREST-17

导读

**FOREST-17(NORAD 68988)卫星摘要** FOREST-17是德国OroraTech公司Forest星座的组网卫星,隶属于全球野火监测卫星网络,NORAD编号为68988。该卫星于2026年5月3日发射,运行于近地太阳同步轨道(LEO/SSO),主要搭载高分辨率热红外传感器与AI处理模块,可实现全球范围内森林火灾的快速监测与预警。作为OroraTech 2026年百星组网计划的一部分,FOREST-17将提升全球野火监测的重访频率,助力林业、农业等领域的温度动态监测,推动Wildfire detection技术的商业化应用。

基本信息
目录编号:
68988
目录名称:
OT-FOREST-17 TELPERION
国际标识:
2026-100J
轨道中心:
EARTH
卫星名称:
FOREST-17
卫星全名:
FOREST-17
卫星状态:
在轨 (已飞行125 天)
发射日期:
2026-05-03 UTC
国别 :
德国 (DE)
星等 :
--
轨道信息
数据来源 国际轨道数据
星历时间: 2026-09-04T23:44:14+0800
17小时前
查看轨道信息
半长轴: 6967.073km
偏心率: 0.0004228
轨道倾角: 97.723°
近地点辐角 228.747°
升交点赤经 143.489°
平近点角 131.339°
近地点: 585.99km
远地点: 591.882km
周期: 96.457分钟
每日圈数: 14.928882
详细信息
使用方式:
暂无
2D轨道图
3D轨道图
轨道高度分析图
轨道倾角分析图
轨道综合分析图
查看轨道综合分析图